Juliana Airport, Sint Maarten

7:26 PM AST on June 26, 2017 (GMT -0400)
Princess Juliana International

Weather History for TNCM - December, 2013

Change the Weather History Date:

Sunday, December 8, 2013

  Actual Average Record
Temperature  
Mean Temperature 76 °F -  
Max Temperature 82 °F 82 °F 87 °F (1997)
Min Temperature 70 °F 73 °F 70 °F (2013)
Cooling Degree Days 11    
Growing Degree Days 26 (Base 50)    
Moisture  
Dew Point 68 °F    
Average Humidity 68    
Maximum Humidity 88    
Minimum Humidity 52    
Precipitation  
Precipitation 0.67 in 0.10 in - ()
Sea Level Pressure  
Sea Level Pressure 30.03 in    
Wind  
Wind Speed 17 mph ()    
Max Wind Speed 25 mph    
Max Gust Speed 37 mph    
Visibility 7.2 miles    
Events Rain    
Averages and records for this station are not official NWS values.
T = Trace of Precipitation, MM = Missing Value Source: Averaged Metar Reports

Daily Weather History Graph

Daily Weather History Graph

Search for Another Location

Airport or City:

Trip Planner

Search our weather history database for the weather conditions in past years. The results will help you decide how hot, cold, wet, or windy it might be!

Date:

Astronomy

Dec. 08, 2013 Rise Set
Actual Time 6:32 AM AST 5:36 PM AST
Civil Twilight 6:08 AM AST 6:00 PM AST
Nautical Twilight 5:41 AM AST 6:27 PM AST
Astronomical Twilight 5:14 AM AST 6:54 PM AST
Moon 11:27 AM AST (12/8) 11:39 PM AST (12/8)
Length of Visible Light 11h 52m
Length of Day
11h 04m
Waxing Crescent, 39% of the Moon is Illuminated
Dec 8
Waxing Crescent
Dec 9
First Quarter
Dec 17
Full
Dec 25
Last Quarter
Jan 1
New

Hourly Weather History & Observations

Time (AST) Temp. Heat Index Dew Point Humidity Pressure Visibility Wind Dir Wind Speed Gust Speed Precip Events Conditions
12:00 AM 75.2 °F - 68.0 °F 78% 30.01 in 6.2 mi East 18.4 mph - N/A Rain Light Rain Showers
1:00 AM 78.8 °F - 68.0 °F 69% 29.98 in 6.2 mi East 20.7 mph - N/A   Scattered Clouds
2:00 AM 74 °F - 69 °F 79% 30.00 in 6 mi East 16.1 mph - - Rain Light Rain Showers
2:00 AM 75.2 °F - 68.0 °F 78% 29.98 in 6.2 mi East 16.1 mph - N/A Rain Light Rain Showers
3:00 AM 71.6 °F - 68.0 °F 88% 29.98 in 6.2 mi East 25.3 mph - N/A Rain Rain Showers
4:00 AM - - 68.0 °F N/A% 29.98 in 6.2 mi ENE 18.4 mph - N/A Rain Light Rain Showers
5:00 AM 78 °F - 66 °F 58% 29.98 in 12 mi ENE 19.6 mph - -   Partly Cloudy
5:00 AM 77.0 °F - 66.2 °F 69% 29.98 in 6.2 mi ENE 19.6 mph - N/A   Mostly Cloudy
6:00 AM 77.0 °F - 69.8 °F 78% 29.98 in 6.2 mi East 17.3 mph - N/A Rain Light Rain Showers
7:00 AM 75.2 °F - 69.8 °F 83% 30.01 in 3.7 mi East 21.9 mph 36.8 mph N/A Rain Rain Showers
8:00 AM 77 °F - 69 °F 71% 30.04 in 2 mi ENE 18.4 mph - - Rain Heavy Rain Showers
8:00 AM 77.0 °F - 69.8 °F 78% 30.04 in 1.9 mi ENE 18.4 mph 32.2 mph N/A Rain Heavy Rain Showers
8:35 AM 78.8 °F - 68.0 °F 69% 30.06 in 6.2 mi East 17.3 mph - N/A Rain Light Rain
9:00 AM 78.8 °F - 68.0 °F 69% 30.06 in 6.2 mi East 17.3 mph - N/A Rain Light Rain
10:00 AM 80.6 °F 83.2 °F 68.0 °F 65% 30.06 in 6.2 mi ENE 20.7 mph 33.4 mph N/A   Scattered Clouds
11:00 AM 81 °F - 69 °F 60% 30.07 in 16 mi ENE 18.4 mph - -   Partly Cloudy
11:00 AM 80.6 °F 83.9 °F 69.8 °F 70% 30.06 in 6.2 mi ENE 18.4 mph - N/A   Partly Cloudy
12:00 PM 82.4 °F 85.4 °F 68.0 °F 62% 30.04 in 6.2 mi ENE 20.7 mph - N/A   Scattered Clouds
1:00 PM 80.6 °F 83.9 °F 69.8 °F 70% 30.04 in 6.2 mi ENE 20.7 mph - N/A   Scattered Clouds
1:26 PM 80.6 °F 83.2 °F 68.0 °F 65% 30.01 in 6.2 mi East 18.4 mph 31.1 mph N/A   Scattered Clouds
2:00 PM 80 °F - 69 °F 60% 30.02 in 12 mi East 20.7 mph - -   Partly Cloudy
2:00 PM 80.6 °F 83.2 °F 68.0 °F 65% 30.01 in 6.2 mi East 20.7 mph - N/A   Scattered Clouds
3:00 PM 80.6 °F 83.2 °F 68.0 °F 65% 30.01 in 6.2 mi ENE 21.9 mph - N/A   Partly Cloudy
4:00 PM 80.6 °F 83.2 °F 68.0 °F 65% 30.01 in 6.2 mi ENE 20.7 mph - N/A   Scattered Clouds
4:38 PM 78.8 °F - 68.0 °F 69% 30.01 in 6.2 mi East 18.4 mph 33.4 mph N/A   Scattered Clouds
5:00 PM 80 °F - 65 °F 52% 30.02 in 12 mi ENE 23.0 mph - -   Partly Cloudy
5:00 PM 80.6 °F 82.3 °F 64.4 °F 58% 30.01 in 6.2 mi ENE 23.0 mph - N/A   Partly Cloudy
6:00 PM 78.8 °F - 68.0 °F 69% 30.04 in 6.2 mi ENE 19.6 mph - N/A   Partly Cloudy
7:00 PM 78.8 °F - 68.0 °F 69% 30.04 in 6.2 mi ENE 19.6 mph 32.2 mph N/A   Partly Cloudy
8:00 PM 79 °F - 70 °F 67% 30.06 in 12 mi ENE 18.4 mph - -  
8:00 PM 78.8 °F - 69.8 °F 74% 30.04 in 6.2 mi ENE 18.4 mph 31.1 mph N/A   Partly Cloudy
9:00 PM 78.8 °F - 68.0 °F 69% 30.06 in 6.2 mi East 17.3 mph 29.9 mph N/A   Scattered Clouds
10:00 PM 78.8 °F - 68.0 °F 69% 30.06 in 6.2 mi East 18.4 mph 33.4 mph N/A   Partly Cloudy
11:00 PM 80 °F - 67 °F 56% 30.09 in 19 mi East 13.8 mph - -   Partly Cloudy
11:00 PM 80.6 °F 82.7 °F 66.2 °F 61% 30.06 in 6.2 mi East 13.8 mph - N/A   Scattered Clouds